Notices

What's New in latest Release from April 7th, 2021:

- Updated Glossary, including Speed of Maximum Gust, and Total Hourly Precipitation

- Updated national and regional climate services offices contacts and prices information

- Addition of station inventory lists for 1981-2010, 1971-2000, and 1961-1990 Normals.

If you haven't already, please take our survey and provide feedback about our website: https://eccc.sondage-survey.ca/f/LanguageSelection.aspx?s=442ca660-fcf1-47c0-95a9-59707d6fd709

Hourly Data Report for August 01, 2003

TORONTO CITY
ONTARIO

43°40'00.000" N
79°24'00.000" W
112.50 m
6158355
71508
XTO

Download Data

Hourly Data (August 2003)
Hourly Data Report for August 1, 2003
TIME
LST
Temp Definition
°C
Dew Point Definition
°C
Rel Hum Definition
%
Precip. Amount Definition
mm

Wind Dir Definition
10's deg

Wind Spd Definition
km/h
Visibility Definition
km
Stn Press Definition
kPa
Hmdx Definition


Wind Chill Definition


Weather Definition


00:00 21.1 18.6 86   LegendMM LegendMM LegendMM 100.29 28   LegendNANA
01:00 21.6 18.9 85   LegendMM LegendMM LegendMM 100.30 28   LegendNANA
02:00 21.4 18.5 84   LegendMM LegendMM LegendMM 100.29 28   LegendNANA
03:00 20.4 18.2 87   LegendMM LegendMM LegendMM 100.18 27   LegendNANA
04:00 19.3 17.8 91   LegendMM LegendMM LegendMM 100.15     LegendNANA
05:00 19.4 17.9 91   LegendMM LegendMM LegendMM 100.18     LegendNANA
06:00 19.8 18.2 90   LegendMM LegendMM LegendMM 100.20     LegendNANA
07:00 20.9 18.6 87   LegendMM LegendMM LegendMM 100.24 27   LegendNANA
08:00 21.5 18.8 85   LegendMM LegendMM LegendMM 100.26 28   LegendNANA
09:00 22.3 19.4 84   LegendMM LegendMM LegendMM 100.29 29   LegendNANA
10:00 22.8 19.9 84   LegendMM LegendMM LegendMM 100.28 30   LegendNANA
11:00 22.7 20.8 89   LegendMM LegendMM LegendMM 100.30 31   LegendNANA
12:00 23.9 20.5 81   LegendMM LegendMM LegendMM 100.26 32   LegendNANA
13:00 24.3 20.2 78   LegendMM LegendMM LegendMM 100.24 32   LegendNANA
14:00 24.0 18.9 73   LegendMM LegendMM LegendMM 100.20 31   LegendNANA
15:00 23.4 18.3 73   LegendMM LegendMM LegendMM 100.17 30   LegendNANA
16:00 23.1 17.8 72   LegendMM LegendMM LegendMM 100.14 29   LegendNANA
17:00 21.7 18.0 79   LegendMM LegendMM LegendMM 100.08 28   LegendNANA
18:00 20.4 18.3 88   LegendMM LegendMM LegendMM 100.10 27   LegendNANA
19:00 20.3 18.1 87   LegendMM LegendMM LegendMM 100.13 26   LegendNANA
20:00 19.7 17.5 87   LegendMM LegendMM LegendMM 100.15     LegendNANA
21:00 19.3 17.6 90   LegendMM LegendMM LegendMM 100.15     LegendNANA
22:00 19.4 18.4 94   LegendMM LegendMM LegendMM 100.13     LegendNANA
23:00 19.5 18.7 95   LegendMM LegendMM LegendMM 100.09     LegendNANA

Notes on Data Quality.

Legend

  • E = Estimated
  • M = Missing
  • NA = Not Available*
  • [empty] = Indicates an unobserved value
Date modified: